(85537) = 1997 WP31 = 2001 UA23

Discovered at Socorro on 1997-11-29 by LINEAR.

Orbit

Orbit type: Main Belt

Note: WebGL enabled browser required.

epoch2024-03-31.0
epoch JD2460400.5
perihelion date2023-03-18.80793
perihelion JD2460022.30793
argument of perihelion (°)148.33785
ascending node (°)234.04797
inclination (°)13.60724
eccentricity0.0820689
perihelion distance (AU)2.4175091
Tisserand w.r.t. Jupiter3.4
ΔV w.r.t. Earth (km/sec)10.6
semimajor axis (AU)2.6336498
mean anomaly (°)87.21260
mean daily motion (°/day)0.23060400
aphelion distance (AU)2.850
period (years)4.27
P-vector [x]0.91271344
P-vector [y]0.30822896
P-vector [z]0.26823326
Q-vector [x]-0.36150154
Q-vector [y]0.91512576
Q-vector [z]0.17849783
absolute magnitude14.88
phase slope0.15
uncertainty0
referenceMPEC 2024-D35
observations used1589
oppositions18
arc length (days)9574
first opposition used1997
last opposition used2024
residual rms (arc-secs)0.67
perturbers coarse indicatorM-v
perturbers precise indicator003Ek
first observation date used1997-11-29.0
last observation date used2024-02-15.0
computer nameMPCLINUX
JD of orbit computation2456966.704756
perihelion JD uncertainty (days)1.3897E-04
argument of perihelion uncertainty (°)3.9102E-05
ascending node uncertainty (°)2.0322E-05
inclination uncertainty (°)7.7105E-06
eccentricity uncertainty 6.8441E-08
perihelion distance uncertainty (AU)1.7571E-07
Minimum Orbit Intersection Distances (in AU)
for orbit epoch: 2460400.5, reference: E2024-D35
Mercury2.08672
Venus1.70465
Earth1.43282
Mars0.96041
Jupiter2.55764
Saturn6.52183
Uranus15.7029
Neptune27.4021

Observations

1612 total observations over interval: 1997 11 29.14174 – 2024 02 15.105891
These data are available for download (format description).

Date (UT) J2000 RA J2000 Dec Magn Location Ref
1997 11 29.14174 03 21 02.22 +16 56 46.4 17.5   704 – Lincoln Laboratory ETS, New Mexico MPS 307
1997 11 29.17523 03 21 00.63 +16 56 28.7   704 – Lincoln Laboratory ETS, New Mexico MPS 307
1997 11 29.19402 03 20 59.68 +16 56 17.8 17.7   704 – Lincoln Laboratory ETS, New Mexico MPS 307
1997 11 29.21272 03 20 58.72 +16 56 06.6 17.7   704 – Lincoln Laboratory ETS, New Mexico MPS 307
1997 11 29.23426 03 20 57.70 +16 55 55.4 18.1   704 – Lincoln Laboratory ETS, New Mexico MPS 307
1997 12 04.21633 03 17 12.08 +16 11 46.4 18.4   704 – Lincoln Laboratory ETS, New Mexico MPS 307
1997 12 04.24319 03 17 10.91 +16 11 32.5 18.1   704 – Lincoln Laboratory ETS, New Mexico MPS 307
1997 12 04.25972 03 17 10.27 +16 11 23.0 18.1   704 – Lincoln Laboratory ETS, New Mexico MPS 307
1997 12 04.27631 03 17 09.49 +16 11 15.0 18.0   704 – Lincoln Laboratory ETS, New Mexico MPS 307
1997 12 04.29355 03 17 08.71 +16 11 06.0 18.0   704 – Lincoln Laboratory ETS, New Mexico MPS 307
1997 12 06.32589 03 15 45.51 +15 53 59.6 18.0 V 691 – Steward Observatory, Kitt Peak-Spacewatch MPS 79486
1997 12 06.34772 03 15 44.67 +15 53 49.5 18.4 V 691 – Steward Observatory, Kitt Peak-Spacewatch MPS 79486
1997 12 06.38564 03 15 43.16 +15 53 30.5 18.5 V 691 – Steward Observatory, Kitt Peak-Spacewatch MPS 79486
2001 09 09.36614 01 08 20.03 +23 29 58.5 18.5   704 – Lincoln Laboratory ETS, New Mexico MPS 40118
2001 09 09.38015 01 08 19.66 +23 29 57.4 18.8   704 – Lincoln Laboratory ETS, New Mexico MPS 40118
2001 09 09.39421 01 08 19.33 +23 29 54.6 18.7   704 – Lincoln Laboratory ETS, New Mexico MPS 40118
2001 09 09.40823 01 08 18.90 +23 29 53.2 18.4   704 – Lincoln Laboratory ETS, New Mexico MPS 40118
2001 09 09.42224 01 08 18.53 +23 29 50.5 18.5   704 – Lincoln Laboratory ETS, New Mexico MPS 40118
2001 09 18.33282 01 03 50.12 +22 58 08.9 18.1   644 – Palomar Mountain/NEAT MPS 40118
2001 09 18.35393 01 03 49.30 +22 58 02.7 18.1   644 – Palomar Mountain/NEAT MPS 40118
2001 09 18.37551 01 03 48.49 +22 57 56.6 17.6   644 – Palomar Mountain/NEAT MPS 40118
2001 09 25.26218 00 59 16.68 +22 17 36.8 17.8   704 – Lincoln Laboratory ETS, New Mexico MPS 48453
2001 09 25.27719 00 59 15.97 +22 17 30.6 18.2   704 – Lincoln Laboratory ETS, New Mexico MPS 48453
2001 09 25.29220 00 59 15.33 +22 17 24.5 18.1   704 – Lincoln Laboratory ETS, New Mexico MPS 48453
2001 09 25.30719 00 59 14.64 +22 17 18.4 17.9   704 – Lincoln Laboratory ETS, New Mexico MPS 48453
2001 09 25.32217 00 59 13.97 +22 17 12.6 18.9   704 – Lincoln Laboratory ETS, New Mexico MPS 48453
2001 09 29.43471 00 56 12.69 +21 46 44.9 17.9   644 – Palomar Mountain/NEAT MPS 40118
2001 09 29.45599 00 56 11.68 +21 46 34.5 17.8   644 – Palomar Mountain/NEAT MPS 40118
2001 09 29.47726 00 56 10.69 +21 46 24.3 17.7   644 – Palomar Mountain/NEAT MPS 40118
2001 10 15.47289 00 43 48.49 +19 11 20.5 18.3   608 – Haleakala-AMOS MPS 42849
2001 10 15.48375 00 43 47.99 +19 11 13.2 18.4   608 – Haleakala-AMOS MPS 42849
2001 10 15.49489 00 43 47.47 +19 11 05.7 18.4   608 – Haleakala-AMOS MPS 42849
2001 10 18.24417 00 41 47.86 +18 40 13.2 18.0   704 – Lincoln Laboratory ETS, New Mexico MPS 41024
2001 10 18.25997 00 41 47.16 +18 40 02.7 18.2   704 – Lincoln Laboratory ETS, New Mexico MPS 41024
2001 10 18.27709 00 41 46.35 +18 39 51.1 18.2   704 – Lincoln Laboratory ETS, New Mexico MPS 41024
2001 10 18.29311 00 41 45.67 +18 39 40.0 17.8   704 – Lincoln Laboratory ETS, New Mexico MPS 41024
2001 10 18.30903 00 41 44.96 +18 39 29.4 18.2   704 – Lincoln Laboratory ETS, New Mexico MPS 41024
2001 10 19.25192 00 41 05.44 +18 28 44.6 18.1   704 – Lincoln Laboratory ETS, New Mexico MPS 41024
2001 10 19.26922 00 41 04.61 +18 28 33.3 18.6   704 – Lincoln Laboratory ETS, New Mexico MPS 41024
2001 10 19.28588 00 41 04.00 +18 28 21.8 18.4   704 – Lincoln Laboratory ETS, New Mexico MPS 41024
2001 10 19.30228 00 41 03.19 +18 28 10.5 18.5   704 – Lincoln Laboratory ETS, New Mexico MPS 41024
2001 10 19.32002 00 41 02.40 +18 27 57.6 18.1   704 – Lincoln Laboratory ETS, New Mexico MPS 41024
2001 10 26.16486 00 36 40.89 +17 08 48.7 17.7   644 – Palomar Mountain/NEAT MPS 41592
2001 10 26.18580 00 36 40.13 +17 08 34.1 17.9   644 – Palomar Mountain/NEAT MPS 41592
2001 10 26.20680 00 36 39.36 +17 08 19.6 17.7   644 – Palomar Mountain/NEAT MPS 41592
2001 11 03.40329 00 32 42.31 +15 34 43.1 18.2   644 – Palomar Mountain/NEAT MPS 40118
2001 11 03.42456 00 32 41.79 +15 34 28.8 18.3   644 – Palomar Mountain/NEAT MPS 40118
2001 11 03.44659 00 32 41.25 +15 34 14.0 18.6   644 – Palomar Mountain/NEAT MPS 40118
2001 11 11.26576 00 30 29.40 +14 11 02.2 18.8   644 – Palomar Mountain/NEAT MPS 41592
2001 11 11.28702 00 30 29.09 +14 10 49.2 18.1   644 – Palomar Mountain/NEAT MPS 41592
2001 11 11.30825 00 30 28.85 +14 10 36.4 18.2   644 – Palomar Mountain/NEAT MPS 41592
2001 11 13.18935 00 30 12.09 +13 51 56.8 18.2   704 – Lincoln Laboratory ETS, New Mexico MPS 40118
2001 11 13.20372 00 30 11.94 +13 51 48.6 18.4   704 – Lincoln Laboratory ETS, New Mexico MPS 40118
2001 11 13.21806 00 30 11.79 +13 51 40.7 18.2   704 – Lincoln Laboratory ETS, New Mexico MPS 40118
2001 11 13.23240 00 30 11.67 +13 51 31.9 18.1   704 – Lincoln Laboratory ETS, New Mexico MPS 40118
2001 11 13.24674 00 30 11.50 +13 51 23.7 18.8   704 – Lincoln Laboratory ETS, New Mexico MPS 40118
2001 11 17.14676 00 29 55.80 +13 14 46.4 18.4   704 – Lincoln Laboratory ETS, New Mexico MPS 41592
2001 11 17.16120 00 29 55.76 +13 14 38.5 18.6   704 – Lincoln Laboratory ETS, New Mexico MPS 41592
2001 11 17.18025 00 29 55.72 +13 14 28.4 18.7   704 – Lincoln Laboratory ETS, New Mexico MPS 41592
2001 11 17.19466 00 29 55.67 +13 14 20.3 18.8   704 – Lincoln Laboratory ETS, New Mexico MPS 41592
2001 11 17.20974 00 29 55.62 +13 14 11.4 18.6   704 – Lincoln Laboratory ETS, New Mexico MPS 41592
2001 11 17.26351 00 29 55.56 +13 13 42.9 18.3   644 – Palomar Mountain/NEAT MPS 41592
2001 11 17.28486 00 29 55.50 +13 13 31.3 18.9   644 – Palomar Mountain/NEAT MPS 41592
2001 11 17.30586 00 29 55.44 +13 13 20.1 18.1   644 – Palomar Mountain/NEAT MPS 41592
2001 11 21.09228 00 30 05.81 +12 40 44.0 19.0   704 – Lincoln Laboratory ETS, New Mexico MPS 42849
2001 11 21.10689 00 30 05.79 +12 40 37.9 18.7   704 – Lincoln Laboratory ETS, New Mexico MPS 42849
2001 11 21.12148 00 30 05.84 +12 40 30.0 18.5   704 – Lincoln Laboratory ETS, New Mexico MPS 42849
2001 11 21.13606 00 30 05.89 +12 40 22.9 18.6   704 – Lincoln Laboratory ETS, New Mexico MPS 42849
2001 12 11.14045 00 37 17.63 +10 40 06.3 19.0   704 – Lincoln Laboratory ETS, New Mexico MPS 42849
2001 12 11.15575 00 37 18.14 +10 40 02.7 19.5   704 – Lincoln Laboratory ETS, New Mexico MPS 42849
2001 12 11.17103 00 37 18.66 +10 39 59.5 19.5   704 – Lincoln Laboratory ETS, New Mexico MPS 42849
2001 12 11.18632 00 37 19.20 +10 39 56.2 19.4   704 – Lincoln Laboratory ETS, New Mexico MPS 42849
2001 12 11.20161 00 37 19.75 +10 39 52.1 19.3   704 – Lincoln Laboratory ETS, New Mexico MPS 42849
2001 12 17.16225 00 41 20.26 +10 20 55.9 19.4   704 – Lincoln Laboratory ETS, New Mexico MPS 42849
2001 12 17.17751 00 41 20.86 +10 20 53.0 18.9   704 – Lincoln Laboratory ETS, New Mexico MPS 42849
2001 12 17.19353 00 41 21.65 +10 20 50.3 19.6   704 – Lincoln Laboratory ETS, New Mexico MPS 42849
2001 12 17.20863 00 41 22.32 +10 20 48.3 19.1   704 – Lincoln Laboratory ETS, New Mexico MPS 42849
2002 12 14.46262 09 30 33.31 -02 42 01.4 19.1   704 – Lincoln Laboratory ETS, New Mexico MPS 81322
2002 12 14.47828 09 30 33.36 -02 42 09.9 19.5   704 – Lincoln Laboratory ETS, New Mexico MPS 81322
2002 12 14.49383 09 30 33.36 -02 42 16.6 19.9   704 – Lincoln Laboratory ETS, New Mexico MPS 81322
2002 12 14.50939 09 30 33.42 -02 42 22.0 19.2   704 – Lincoln Laboratory ETS, New Mexico MPS 81322
2003 02 01.31644 09 04 30.00 -05 06 35.7 18.5 R 699 – Lowell Observatory-LONEOS MPS 71047
2003 02 01.33239 09 04 29.17 -05 06 34.9   699 – Lowell Observatory-LONEOS MPS 71047
2003 02 01.34830 09 04 28.36 -05 06 32.0   699 – Lowell Observatory-LONEOS MPS 71047
2003 02 01.36423 09 04 27.39 -05 06 30.7   699 – Lowell Observatory-LONEOS MPS 71047
2003 02 03.29396 09 02 42.07 -05 01 21.7 19.3   704 – Lincoln Laboratory ETS, New Mexico MPS 71047
